sat.trackr.live / text

‹ back to catalog

YAMAL 202

NORAD 28089 · 2003-053A

PAYLOAD ACTIVE UNKNOWN

§ Identity

Operator
Country
CIS
Launch date
2003-11-24
Launch site
TYMSC
Launch vehicle
Mass (kg)
RCS (m²)
79.43

Purposes: comms

External: N2YO · Heavens-Above · Gunter

§ Orbital elements

Epoch: 2026-05-24T14:49:52.475808Z

Period
1,436.09 min
Inclination
6.2854°
Eccentricity
0.0003327
Mean motion
1.00271953 rev/d
Perigee alt
35,772.5 km
Apogee alt
35,800.6 km
Semi-major
42,164.7 km
B*
0.0000e+0
RAAN
71.2169°
Arg perigee
330.7895°
Mean anomaly
226.2319°
Rev number
8,246

§ Raw data

YAMAL 2021 28089U 03053A   26144.61796847 -.00000083  00000+0  00000+0 0  99932 28089   6.2854  71.2169 0003327 330.7895 226.2319  1.00271953 82463

JSON: /api/v1/satellites/28089 · /tle

For live sub-satellite position, see the globe view (requires WebGL).

§ Visibility from observer

Set your observer location to see the next 7 days of passes ≥ 10°. The values pass through the URL so the page stays shareable.

No JS? Fill the form by hand. The geolocation button needs JavaScript.